sat.trackr.live / text

‹ back to catalog

STARLINK-36393

NORAD 67859 · 2026-034K

PAYLOAD ACTIVE UNKNOWN

§ Identity

Operator
Country
US
Launch date
2026-02-20
Launch site
AFETR
Launch vehicle
Mass (kg)
RCS (m²)

Purposes: comms

External: N2YO · Heavens-Above · Gunter

§ Orbital elements

Epoch: 2026-09-19T19:29:34.673568Z

Period
94.01 min
Inclination
53.1590°
Eccentricity
0.0001024
Mean motion
15.31726417 rev/d
Perigee alt
470.0 km
Apogee alt
471.4 km
Semi-major
6,848.8 km
B*
4.9598e-4
RAAN
20.6467°
Arg perigee
66.2001°
Mean anomaly
293.9107°
Rev number
3,378

§ Raw data

STARLINK-363931 67859U 26034K   26262.81220687  .00015070  00000+0  49598-3 0  99922 67859  53.1590  20.6467 0001024  66.2001 293.9107 15.31726417 33786

JSON: /api/v1/satellites/67859 · /tle

For live sub-satellite position, see the globe view (requires WebGL).

§ Visibility from observer

Set your observer location to see the next 7 days of passes ≥ 10°. The values pass through the URL so the page stays shareable.

No JS? Fill the form by hand. The geolocation button needs JavaScript.